Regional Weather Roundup
Issued by NWS

Home | Current Version | Previous Version | Graphics & Text | Print | Product List | Glossary On
Versions: 1 2 3 4 5 6 7 8 9 10 11 12 13 14 15 16 17 18 19 20 21 22 23 24 25 26 27 28 29 30 31 32 33 34 35 36 37 38 39 40 41 42 43 44 45 46 47 48 49 50
162
ASUS45 KBOU 090507
RWRCO

WEATHER ROUNDUP FOR COLORADO
NATIONAL WEATHER SERVICE DENVER/BOULDER CO
1000 PM MST MON FEB 08 2016

NOTE: "FAIR" INDICATES FEW OR NO CLOUDS BELOW 12000 FEET WITH NO
SIGNIFICANT WEATHER AND/OR OBSTRUCTIONS TO VISIBILITY.

COZ001>005-013-030-031-090600-
...NORTHWEST COLORADO...

CITY           SKY/WX    TMP DP  RH WIND       PRES   REMARKS
CRAIG          CLOUDY     4   0  83 CALM      30.54S
HAYDEN         CLOUDY    18  10  73 SE7       30.51S WCI   8
MEEKER         CLOUDY    16  11  80 SE5       30.52S WCI   9
MOUNT WERNER   NOT AVBL
STEAMBOAT SPGS CLOUDY    17  14  87 CALM      30.52S
WALDEN         CLOUDY    14   9  79 E7        30.48S WCI   4
$$

COZ006>008-011-090600-
...WEST CENTRAL VALLEYS...

CITY           SKY/WX    TMP DP  RH WIND       PRES   REMARKS
GRAND JUNCTION CLOUDY    18  16  92 CALM      30.53R
MONTROSE       CLOUDY    21  16  81 S7        30.53F WCI  12
EAGLE          CLEAR     19  16  86 CALM      30.53S
RIFLE          CLOUDY    22  14  71 CALM      30.52S
DELTA          CLOUDY    28  23  81 CALM      30.53S
NUCLA          CLOUDY    30  23  74 E6        30.52S WCI  24
$$

COZ017>023-064>068-090600-
...SOUTHWEST COLORADO...

CITY           SKY/WX    TMP DP  RH WIND       PRES   REMARKS
DURANGO        CLOUDY    19  15  84 CALM      30.43R
CORTEZ         CLOUDY    30  21  69 NE8       30.45S WCI  22
PAGOSA SPRINGS CLOUDY    25  18  76 CALM      30.44S
TELLURIDE      NOT AVBL
WOLF CREEK PAS CLOUDY    27   0  31 N16G23    30.55S WCI  14
$$

COZ009-010-012-014-032>034-037-058>063-090600-
...CENTRAL COLORADO...

CITY           SKY/WX    TMP DP  RH WIND       PRES   REMARKS
ASPEN          CLOUDY    20  13  74 S7        30.51R WCI  11
BUENA VISTA    CLOUDY    35  18  49 NW23G30   30.41S WCI  23
COPPER MTN     CLOUDY    23  14  68 W12G17    30.51S WCI  12
BERTHOUD PASS  HAZE      10   1  67 N16G25    30.46S VSB<1/4 WCI  -7
COTTONWOOD PAS CLOUDY    34   9  35 NW10G23   30.43S WCI  26
GUNNISON       CLOUDY     5  -6  61 CALM      30.56S
KREMMLING      CLOUDY     9   5  85 CALM      30.53R
LEADVILLE      CLOUDY    16  12  84 NE7       30.47F WCI   6
MONARCH PASS   CLOUDY    21  10  63 MISG      30.59F
SALIDA         NOT AVBL
SUNLIGHT       CLOUDY    27  18  69 NW7         N/A  WCI  19
WILKERSON PASS CLOUDY    27   3  36 NW13G23   30.46F WCI  16
$$

COZ069>075-090600-
...SAN LUIS VALLEY/SANGRE DE CRISTO MOUNTAINS...

CITY           SKY/WX    TMP DP  RH WIND       PRES   REMARKS
ALAMOSA        CLOUDY    20  17  88 E5        30.43R WCI  13
LA VETA PASS   CLOUDY    30  12  47 MISG      30.44F
SAGUACHE       CLOUDY    32  19  59 NW12G17   30.45S WCI  23
$$

COZ035-036-038>040-090600-
...NORTHERN COLORADO FRONT RANGE...

CITY           SKY/WX    TMP DP  RH WIND       PRES   REMARKS
DENVER INTL AP CLOUDY    30  21  69 S14       30.31F WCI  19
DMNS CITY PARK   N/A     34  23  64 SE10      30.32S WCI  26
AURORA         PTCLDY    32  24  72 S10       30.33F WCI  23
FRONT RANGE AP NOT AVBL
ERIE MUNI ARPT CLOUDY    36  24  62 S6        30.32S
BOULDER MUN AP CLOUDY    32  27  80 SW5       30.30F WCI  27
CENTENNIAL     CLOUDY    33  23  66 S10       30.32F WCI  25
BROOMFIELD     MOCLDY    37  21  52 S7        30.32F
FORT COLLINS   CLOUDY    30  21  69 N3        30.32F
LONGMONT       CLOUDY    29  23  75 CALM      30.34R
$$

COZ041-046-047-076>085-087-088-090600-
...PIKES PEAK/PALMER DIVIDE AND SOUTHERN FOOTHILLS...

CITY           SKY/WX    TMP DP  RH WIND       PRES   REMARKS
COLO. SPRINGS  CLOUDY    23  16  74 N7        30.38F WCI  15
A. F. ACADEMY  CLOUDY    20  16  84 N7        30.36F WCI  12
SCHRIEVER AFB  NOT AVBL
ELLICOTT       NOT AVBL
FALCON         CLOUDY    25  18  76 W8        30.37F WCI  16
FORT CARSON    CLOUDY    25  20  80 NW7       30.36F WCI  17
LIMON          CLOUDY    30  22  72 W9        30.33S WCI  22
MONUMENT HILL  CLOUDY    21  16  79 SW8       30.36F WCI  12
TRINIDAD       CLOUDY    29  19  66 S12       30.37F WCI  19
$$

COZ042>045-048>051-090-091-090600-
...NORTHEAST COLORADO...

CITY           SKY/WX    TMP DP  RH WIND       PRES   REMARKS
GREELEY ARPT   CLOUDY    25  18  74 SW5       30.32F WCI  19
AKRON          CLOUDY    35  26  69 NW16      30.27F WCI  25
BURLINGTON     CLOUDY    29  22  75 W12       30.26F WCI  19
WRAY           CLEAR     36  29  75 NW13      30.25F
STERLING       CLOUDY    34  28  80 NW10      30.26F WCI  26
HOLYOKE        PTCLDY    37  30  75 NW10      30.23F
FORT MORGAN    CLOUDY    37  25  62 NW20      30.30F
$$

COZ086-089-092>099-090600-
...SOUTHEAST COLORADO...

CITY           SKY/WX    TMP DP  RH WIND       PRES   REMARKS
PUEBLO         CLOUDY    30  23  75 W3        30.36F
LA JUNTA       CLOUDY    32  24  72 NW10      30.36R WCI  24
LAMAR          CLEAR     32  26  78 W12       30.33R WCI  23
SPRINGFIELD      N/A     31  22  69 W12       30.33S WCI  22
$$




USA.gov is the U.S. government's official web portal to all federal, state and local government web resources and services.